Time,TemperatureF,DewpointF,PressureIn,WindDirection,WindDirectionDegrees,WindSpeedMPH,WindSpeedGustMPH,Humidity,HourlyPrecipIn,Conditions,Clouds,dailyrainin,SoftwareType,DateUTC
2013-02-14 00:04:00,43.2,25.8,29.93,West,264,1.0,2.0,50,0.00,,,0.00,Wunderground v.1.15,2013-02-14 06:04:00,
2013-02-14 00:10:00,43.1,25.7,29.94,West,265,1.0,2.0,50,0.00,,,0.00,Wunderground v.1.15,2013-02-14 06:10:00,
2013-02-14 00:16:00,43.1,25.7,29.94,West,265,1.0,2.0,50,0.00,,,0.00,Wunderground v.1.15,2013-02-14 06:16:00,
2013-02-14 00:22:00,42.9,25.5,29.94,West,263,1.0,1.0,50,0.00,,,0.00,Wunderground v.1.15,2013-02-14 06:22:00,
2013-02-14 00:28:00,42.6,25.2,29.94,West,263,0.0,1.0,50,0.00,,,0.00,Wunderground v.1.15,2013-02-14 06:28:00,
2013-02-14 00:34:00,42.4,25.5,29.94,West,263,0.0,0.0,51,0.00,,,0.00,Wunderground v.1.15,2013-02-14 06:34:00,
2013-02-14 00:40:00,42.2,25.3,29.94,West,263,0.0,0.0,51,0.00,,,0.00,Wunderground v.1.15,2013-02-14 06:40:00,
2013-02-14 00:46:00,42.1,25.3,29.94,West,263,0.0,2.0,51,0.00,,,0.00,Wunderground v.1.15,2013-02-14 06:46:00,
2013-02-14 00:52:00,42.0,25.2,29.94,West,263,0.0,1.0,51,0.00,,,0.00,Wunderground v.1.15,2013-02-14 06:52:00,
2013-02-14 00:58:00,41.8,24.5,29.94,West,264,0.0,1.0,50,0.00,,,0.00,Wunderground v.1.15,2013-02-14 06:58:00,
2013-02-14 01:04:00,42.0,23.7,29.94,West,266,1.0,3.0,48,0.00,,,0.00,Wunderground v.1.15,2013-02-14 07:04:00,
2013-02-14 01:10:00,42.3,23.5,29.94,West,267,2.0,2.0,47,0.00,,,0.00,Wunderground v.1.15,2013-02-14 07:10:00,
2013-02-14 01:16:00,42.5,23.2,29.94,West,265,2.0,2.0,46,0.00,,,0.00,Wunderground v.1.15,2013-02-14 07:16:00,
2013-02-14 01:22:00,42.5,23.7,29.94,West,260,1.0,2.0,47,0.00,,,0.00,Wunderground v.1.15,2013-02-14 07:22:00,
2013-02-14 01:29:00,42.4,23.6,29.94,West,262,1.0,4.0,47,0.00,,,0.00,Wunderground v.1.15,2013-02-14 07:29:00,
2013-02-14 01:34:00,42.2,23.4,29.94,West,261,1.0,1.0,47,0.00,,,0.00,Wunderground v.1.15,2013-02-14 07:34:00,
2013-02-14 01:40:00,42.0,23.2,29.94,West,259,1.0,2.0,47,0.00,,,0.00,Wunderground v.1.15,2013-02-14 07:40:00,
2013-02-14 01:46:00,41.8,23.5,29.94,WSW,253,1.0,2.0,48,0.00,,,0.00,Wunderground v.1.15,2013-02-14 07:46:00,
2013-02-14 01:52:00,41.6,23.8,29.95,WSW,256,1.0,1.0,49,0.00,,,0.00,Wunderground v.1.15,2013-02-14 07:52:00,
2013-02-14 01:58:00,41.2,23.9,29.95,WSW,256,0.0,1.0,50,0.00,,,0.00,Wunderground v.1.15,2013-02-14 07:58:00,
2013-02-14 02:04:00,41.0,24.2,29.95,WSW,256,0.0,0.0,51,0.00,,,0.00,Wunderground v.1.15,2013-02-14 08:04:00,
2013-02-14 02:10:00,40.7,24.0,29.95,WSW,256,0.0,1.0,51,0.00,,,0.00,Wunderground v.1.15,2013-02-14 08:10:00,
2013-02-14 02:16:00,40.7,23.5,29.95,WSW,256,0.0,3.0,50,0.00,,,0.00,Wunderground v.1.15,2013-02-14 08:16:00,
2013-02-14 02:22:00,40.7,23.5,29.94,WSW,256,0.0,0.0,50,0.00,,,0.00,Wunderground v.1.15,2013-02-14 08:22:00,
2013-02-14 02:28:00,40.7,23.5,29.94,WSW,254,0.0,1.0,50,0.00,,,0.00,Wunderground v.1.15,2013-02-14 08:28:00,
2013-02-14 02:34:00,40.6,23.9,29.94,WSW,254,0.0,0.0,51,0.00,,,0.00,Wunderground v.1.15,2013-02-14 08:34:00,
2013-02-14 02:40:00,40.4,24.1,29.94,WSW,254,0.0,0.0,52,0.00,,,0.00,Wunderground v.1.15,2013-02-14 08:40:00,
2013-02-14 02:46:00,40.1,24.3,29.95,WSW,254,0.0,2.0,53,0.00,,,0.00,Wunderground v.1.15,2013-02-14 08:46:00,
2013-02-14 02:52:00,40.0,23.8,29.94,WSW,254,0.0,1.0,52,0.00,,,0.00,Wunderground v.1.15,2013-02-14 08:52:00,
2013-02-14 02:58:00,39.8,24.0,29.94,WSW,254,0.0,1.0,53,0.00,,,0.00,Wunderground v.1.15,2013-02-14 08:58:00,
2013-02-14 03:04:00,39.7,24.0,29.94,WSW,254,0.0,0.0,53,0.00,,,0.00,Wunderground v.1.15,2013-02-14 09:04:00,
2013-02-14 03:10:00,39.6,23.9,29.94,WSW,254,0.0,0.0,53,0.00,,,0.00,Wunderground v.1.15,2013-02-14 09:10:00,
2013-02-14 03:16:00,39.5,24.2,29.94,WSW,256,0.0,4.0,54,0.00,,,0.00,Wunderground v.1.15,2013-02-14 09:16:00,
2013-02-14 03:24:00,39.3,24.0,29.94,WSW,256,0.0,0.0,54,0.00,,,0.00,Wunderground v.1.15,2013-02-14 09:24:00,
2013-02-14 03:30:00,39.2,23.9,29.93,WSW,256,0.0,0.0,54,0.00,,,0.00,Wunderground v.1.15,2013-02-14 09:30:00,
2013-02-14 03:36:00,39.1,23.8,29.94,WSW,256,0.0,0.0,54,0.00,,,0.00,Wunderground v.1.15,2013-02-14 09:36:00,
2013-02-14 03:42:00,39.1,23.4,29.94,WSW,256,0.0,1.0,53,0.00,,,0.00,Wunderground v.1.15,2013-02-14 09:42:00,
2013-02-14 03:49:00,39.0,23.7,29.93,WSW,256,0.0,0.0,54,0.00,,,0.00,Wunderground v.1.15,2013-02-14 09:49:00,
2013-02-14 04:00:00,38.8,24.0,29.93,WSW,257,0.0,0.0,55,0.00,,,0.00,Wunderground v.1.15,2013-02-14 10:00:00,
2013-02-14 04:06:00,38.7,23.9,29.93,West,259,0.0,0.0,55,0.00,,,0.00,Wunderground v.1.15,2013-02-14 10:06:00,
2013-02-14 04:12:00,38.6,23.8,29.93,West,260,0.0,0.0,55,0.00,,,0.00,Wunderground v.1.15,2013-02-14 10:12:00,
2013-02-14 04:19:00,38.7,23.9,29.94,West,260,0.0,1.0,55,0.00,,,0.00,Wunderground v.1.15,2013-02-14 10:19:00,
2013-02-14 04:24:00,38.7,23.9,29.93,West,260,0.0,0.0,55,0.00,,,0.00,Wunderground v.1.15,2013-02-14 10:24:00,
2013-02-14 04:30:00,38.6,23.8,29.93,West,260,0.0,1.0,55,0.00,,,0.00,Wunderground v.1.15,2013-02-14 10:30:00,
2013-02-14 04:36:00,38.5,23.7,29.93,West,260,0.0,1.0,55,0.00,,,0.00,Wunderground v.1.15,2013-02-14 10:36:00,
2013-02-14 04:42:00,38.5,23.3,29.93,West,260,0.0,1.0,54,0.00,,,0.00,Wunderground v.1.15,2013-02-14 10:42:00,
2013-02-14 04:48:00,38.5,23.3,29.94,West,260,0.0,1.0,54,0.00,,,0.00,Wunderground v.1.15,2013-02-14 10:48:00,
2013-02-14 04:54:00,38.5,23.3,29.94,West,260,0.0,0.0,54,0.00,,,0.00,Wunderground v.1.15,2013-02-14 10:54:00,
2013-02-14 05:00:00,38.4,23.2,29.93,West,261,0.0,0.0,54,0.00,,,0.00,Wunderground v.1.15,2013-02-14 11:00:00,
2013-02-14 05:06:00,38.4,23.2,29.93,West,261,0.0,0.0,54,0.00,,,0.00,Wunderground v.1.15,2013-02-14 11:06:00,
2013-02-14 05:12:00,38.4,23.2,29.94,West,261,0.0,0.0,54,0.00,,,0.00,Wunderground v.1.15,2013-02-14 11:12:00,
2013-02-14 05:18:00,38.3,23.5,29.94,West,261,0.0,0.0,55,0.00,,,0.00,Wunderground v.1.15,2013-02-14 11:18:00,
2013-02-14 05:24:00,38.0,23.7,29.94,West,261,0.0,0.0,56,0.00,,,0.00,Wunderground v.1.15,2013-02-14 11:24:00,
2013-02-14 05:30:00,37.7,23.8,29.94,West,261,0.0,0.0,57,0.00,,,0.00,Wunderground v.1.15,2013-02-14 11:30:00,
2013-02-14 05:36:00,37.4,24.0,29.94,West,261,0.0,1.0,58,0.00,,,0.00,Wunderground v.1.15,2013-02-14 11:36:00,
2013-02-14 05:42:00,37.3,24.3,29.94,West,261,0.0,0.0,59,0.00,,,0.00,Wunderground v.1.15,2013-02-14 11:42:00,
2013-02-14 05:49:00,37.1,24.1,29.95,West,261,0.0,0.0,59,0.00,,,0.00,Wunderground v.1.15,2013-02-14 11:49:00,
2013-02-14 05:54:00,36.9,24.3,29.95,West,261,0.0,0.0,60,0.00,,,0.00,Wunderground v.1.15,2013-02-14 11:54:00,
2013-02-14 06:00:00,36.8,24.6,29.95,West,261,0.0,0.0,61,0.00,,,0.00,Wunderground v.1.15,2013-02-14 12:00:00,
2013-02-14 06:06:00,36.6,24.4,29.95,West,261,0.0,0.0,61,0.00,,,0.00,Wunderground v.1.15,2013-02-14 12:06:00,
2013-02-14 06:12:00,36.5,24.7,29.95,West,261,0.0,0.0,62,0.00,,,0.00,Wunderground v.1.15,2013-02-14 12:12:00,
2013-02-14 06:20:00,36.6,24.8,29.95,WSW,258,0.0,0.0,62,0.00,,,0.00,Wunderground v.1.15,2013-02-14 12:20:00,
2013-02-14 06:26:00,36.8,25.0,29.95,WSW,258,0.0,0.0,62,0.00,,,0.00,Wunderground v.1.15,2013-02-14 12:26:00,
2013-02-14 06:32:00,37.1,25.7,29.95,WNW,296,0.0,1.0,63,0.00,,,0.00,Wunderground v.1.15,2013-02-14 12:32:00,
2013-02-14 06:39:00,37.4,26.3,29.96,WNW,296,0.0,1.0,64,0.00,,,0.00,Wunderground v.1.15,2013-02-14 12:39:00,
2013-02-14 06:44:00,37.7,26.6,29.96,WNW,295,0.0,0.0,64,0.00,,,0.00,Wunderground v.1.15,2013-02-14 12:44:00,
2013-02-14 06:50:00,38.1,27.0,29.97,WNW,291,0.0,0.0,64,0.00,,,0.00,Wunderground v.1.15,2013-02-14 12:50:00,
2013-02-14 06:56:00,38.4,27.3,29.96,WNW,303,1.0,4.0,64,0.00,,,0.00,Wunderground v.1.15,2013-02-14 12:56:00,
2013-02-14 07:02:00,38.3,27.2,29.97,West,281,1.0,1.0,64,0.00,,,0.00,Wunderground v.1.15,2013-02-14 13:02:00,
2013-02-14 07:08:00,38.2,27.5,29.96,WNW,282,1.0,2.0,65,0.00,,,0.00,Wunderground v.1.15,2013-02-14 13:08:00,
2013-02-14 07:14:00,38.1,27.0,29.97,West,281,0.0,1.0,64,0.00,,,0.00,Wunderground v.1.15,2013-02-14 13:14:00,
2013-02-14 07:20:00,38.0,27.3,29.97,WNW,282,0.0,0.0,65,0.00,,,0.00,Wunderground v.1.15,2013-02-14 13:20:00,
2013-02-14 07:26:00,38.1,27.7,29.97,NW,309,1.0,2.0,66,0.00,,,0.00,Wunderground v.1.15,2013-02-14 13:26:00,
2013-02-14 07:32:00,38.3,27.9,29.97,WNW,282,2.0,2.0,66,0.00,,,0.00,Wunderground v.1.15,2013-02-14 13:32:00,
2013-02-14 07:44:00,38.4,28.0,29.98,WNW,288,0.0,0.0,66,0.00,,,0.00,Wunderground v.1.15,2013-02-14 13:44:00,
2013-02-14 07:50:00,38.5,28.1,29.98,WNW,288,0.0,0.0,66,0.00,,,0.00,Wunderground v.1.15,2013-02-14 13:50:00,
2013-02-14 07:56:00,38.7,28.3,29.99,WNW,287,0.0,4.0,66,0.00,,,0.00,Wunderground v.1.15,2013-02-14 13:56:00,
2013-02-14 08:02:00,39.1,28.3,29.99,NW,304,1.0,2.0,65,0.00,,,0.00,Wunderground v.1.15,2013-02-14 14:02:00,
2013-02-14 08:08:00,39.3,28.5,30.00,WNW,302,2.0,5.0,65,0.00,,,0.00,Wunderground v.1.15,2013-02-14 14:08:00,
2013-02-14 08:14:00,39.6,28.8,30.00,WNW,298,3.0,3.0,65,0.00,,,0.00,Wunderground v.1.15,2013-02-14 14:14:00,
2013-02-14 08:20:00,40.0,29.2,30.00,WNW,300,2.0,2.0,65,0.00,,,0.00,Wunderground v.1.15,2013-02-14 14:20:00,
2013-02-14 08:26:00,40.4,29.2,30.00,WNW,292,1.0,2.0,64,0.00,,,0.00,Wunderground v.1.15,2013-02-14 14:26:00,
2013-02-14 08:32:00,40.9,28.9,30.01,West,277,1.0,3.0,62,0.00,,,0.00,Wunderground v.1.15,2013-02-14 14:32:00,
2013-02-14 08:38:00,40.8,29.2,30.01,WNW,294,2.0,3.0,63,0.00,,,0.00,Wunderground v.1.15,2013-02-14 14:38:00,
2013-02-14 08:44:00,41.0,29.4,30.02,WNW,298,2.0,3.0,63,0.00,,,0.00,Wunderground v.1.15,2013-02-14 14:44:00,
2013-02-14 08:50:00,41.2,29.2,30.02,WNW,294,2.0,2.0,62,0.00,,,0.00,Wunderground v.1.15,2013-02-14 14:50:00,
2013-02-14 08:56:00,41.5,29.4,30.02,WNW,291,2.0,2.0,62,0.00,,,0.00,Wunderground v.1.15,2013-02-14 14:56:00,
2013-02-14 09:04:00,42.0,29.5,30.02,WNW,295,2.0,4.0,61,0.00,,,0.00,Wunderground v.1.15,2013-02-14 15:04:00,
2013-02-14 09:10:00,42.4,29.9,30.02,WNW,295,2.0,4.0,61,0.00,,,0.00,Wunderground v.1.15,2013-02-14 15:10:00,
2013-02-14 09:16:00,42.8,29.9,30.02,NW,310,1.0,4.0,60,0.00,,,0.00,Wunderground v.1.15,2013-02-14 15:16:00,
2013-02-14 09:22:00,42.9,30.0,30.02,NW,311,2.0,4.0,60,0.00,,,0.00,Wunderground v.1.15,2013-02-14 15:22:00,
2013-02-14 09:28:00,43.1,30.6,30.02,NW,311,1.0,2.0,61,0.00,,,0.00,Wunderground v.1.15,2013-02-14 15:28:00,
2013-02-14 09:34:00,43.7,30.7,30.02,NW,311,1.0,1.0,60,0.00,,,0.00,Wunderground v.1.15,2013-02-14 15:34:00,
2013-02-14 09:40:00,44.6,31.1,30.02,NW,311,1.0,2.0,59,0.00,,,0.00,Wunderground v.1.15,2013-02-14 15:40:00,
2013-02-14 09:46:00,45.4,31.0,30.02,NNW,331,1.0,2.0,57,0.00,,,0.00,Wunderground v.1.15,2013-02-14 15:46:00,
2013-02-14 09:52:00,46.4,31.1,30.02,North,9,2.0,6.0,55,0.00,,,0.00,Wunderground v.1.15,2013-02-14 15:52:00,
2013-02-14 09:58:00,46.7,30.9,30.02,NNE,17,4.0,6.0,54,0.00,,,0.00,Wunderground v.1.15,2013-02-14 15:58:00,
2013-02-14 10:04:00,46.8,31.0,30.02,NNE,25,4.0,5.0,54,0.00,,,0.00,Wunderground v.1.15,2013-02-14 16:04:00,
2013-02-14 10:10:00,47.2,31.4,30.02,ENE,60,4.0,4.0,54,0.00,,,0.00,Wunderground v.1.15,2013-02-14 16:10:00,
2013-02-14 10:16:00,47.7,31.4,30.02,NNE,32,4.0,7.0,53,0.00,,,0.00,Wunderground v.1.15,2013-02-14 16:16:00,
2013-02-14 10:22:00,47.9,31.6,30.02,NNE,26,4.0,4.0,53,0.00,,,0.00,Wunderground v.1.15,2013-02-14 16:22:00,
2013-02-14 10:28:00,48.4,32.0,30.02,ENE,67,4.0,4.0,53,0.00,,,0.00,Wunderground v.1.15,2013-02-14 16:28:00,
2013-02-14 10:34:00,48.7,31.8,30.02,NE,46,4.0,5.0,52,0.00,,,0.00,Wunderground v.1.15,2013-02-14 16:34:00,
2013-02-14 10:40:00,49.2,32.8,30.02,NNE,28,4.0,4.0,53,0.00,,,0.00,Wunderground v.1.15,2013-02-14 16:40:00,
2013-02-14 10:46:00,49.8,32.9,30.03,ENE,71,3.0,4.0,52,0.00,,,0.00,Wunderground v.1.15,2013-02-14 16:46:00,
2013-02-14 10:52:00,50.1,32.7,30.03,North,9,3.0,7.0,51,0.00,,,0.00,Wunderground v.1.15,2013-02-14 16:52:00,
2013-02-14 10:58:00,50.0,33.1,30.03,NE,46,4.0,7.0,52,0.00,,,0.00,Wunderground v.1.15,2013-02-14 16:58:00,
2013-02-14 11:04:00,50.2,33.2,30.03,NNE,21,4.0,10.0,52,0.00,,,0.00,Wunderground v.1.15,2013-02-14 17:04:00,
2013-02-14 11:10:00,50.8,33.3,30.03,NNE,13,3.0,3.0,51,0.00,,,0.00,Wunderground v.1.15,2013-02-14 17:10:00,
2013-02-14 11:16:00,51.2,33.7,30.03,NNE,16,3.0,4.0,51,0.00,,,0.00,Wunderground v.1.15,2013-02-14 17:16:00,
2013-02-14 11:22:00,51.5,33.5,30.03,ENE,77,3.0,4.0,50,0.00,,,0.00,Wunderground v.1.15,2013-02-14 17:22:00,
2013-02-14 11:28:00,52.5,34.4,30.03,ENE,65,2.0,4.0,50,0.00,,,0.00,Wunderground v.1.15,2013-02-14 17:28:00,
2013-02-14 11:34:00,53.4,34.7,30.02,NE,42,1.0,2.0,49,0.00,,,0.00,Wunderground v.1.15,2013-02-14 17:34:00,
2013-02-14 11:40:00,53.7,34.5,30.03,NNE,24,2.0,2.0,48,0.00,,,0.00,Wunderground v.1.15,2013-02-14 17:40:00,
2013-02-14 11:46:00,53.9,34.1,30.02,NNW,344,2.0,5.0,47,0.00,,,0.00,Wunderground v.1.15,2013-02-14 17:46:00,
2013-02-14 11:52:00,53.9,34.1,30.02,ENE,74,3.0,4.0,47,0.00,,,0.00,Wunderground v.1.15,2013-02-14 17:52:00,
2013-02-14 11:58:00,53.9,34.1,30.02,NE,37,3.0,6.0,47,0.00,,,0.00,Wunderground v.1.15,2013-02-14 17:58:00,
2013-02-14 12:04:00,53.9,34.1,30.02,NNE,18,3.0,5.0,47,0.00,,,0.00,Wunderground v.1.15,2013-02-14 18:04:00,
2013-02-14 12:10:00,54.3,35.0,30.02,ENE,63,2.0,5.0,48,0.00,,,0.00,Wunderground v.1.15,2013-02-14 18:10:00,
2013-02-14 12:16:00,54.6,34.2,30.02,NNE,27,2.0,5.0,46,0.00,,,0.00,Wunderground v.1.15,2013-02-14 18:16:00,
2013-02-14 12:22:00,54.5,34.7,30.02,NNW,340,3.0,6.0,47,0.00,,,0.00,Wunderground v.1.15,2013-02-14 18:22:00,
2013-02-14 12:29:00,54.5,35.2,30.02,NNW,338,3.0,6.0,48,0.00,,,0.00,Wunderground v.1.15,2013-02-14 18:29:00,
2013-02-14 12:34:00,54.7,34.8,30.02,NNE,17,3.0,7.0,47,0.00,,,0.00,Wunderground v.1.15,2013-02-14 18:34:00,
2013-02-14 12:40:00,54.6,34.8,30.02,North,11,4.0,5.0,47,0.00,,,0.00,Wunderground v.1.15,2013-02-14 18:40:00,
2013-02-14 12:46:00,55.3,34.9,30.02,ENE,67,3.0,5.0,46,0.00,,,0.00,Wunderground v.1.15,2013-02-14 18:46:00,
2013-02-14 12:52:00,56.1,34.5,30.02,North,360,2.0,3.0,44,0.00,,,0.00,Wunderground v.1.15,2013-02-14 18:52:00,
2013-02-14 12:59:00,55.9,34.8,30.01,NNE,30,3.0,3.0,45,0.00,,,0.00,Wunderground v.1.15,2013-02-14 18:59:00,
2013-02-14 13:04:00,55.9,34.8,30.01,North,351,3.0,6.0,45,0.00,,,0.00,Wunderground v.1.15,2013-02-14 19:04:00,
2013-02-14 13:10:00,55.8,34.8,30.01,NNE,29,4.0,5.0,45,0.00,,,0.00,Wunderground v.1.15,2013-02-14 19:10:00,
2013-02-14 13:16:00,56.1,34.5,30.01,North,360,3.0,6.0,44,0.00,,,0.00,Wunderground v.1.15,2013-02-14 19:16:00,
2013-02-14 13:22:00,56.2,34.6,30.01,NE,34,3.0,3.0,44,0.00,,,0.00,Wunderground v.1.15,2013-02-14 19:22:00,
2013-02-14 13:29:00,56.6,34.3,30.00,NE,41,3.0,5.0,43,0.00,,,0.00,Wunderground v.1.15,2013-02-14 19:29:00,
2013-02-14 13:34:00,57.1,35.4,30.00,ENE,74,3.0,3.0,44,0.00,,,0.00,Wunderground v.1.15,2013-02-14 19:34:00,
2013-02-14 13:40:00,57.5,35.2,30.00,North,11,2.0,3.0,43,0.00,,,0.00,Wunderground v.1.15,2013-02-14 19:40:00,
2013-02-14 13:46:00,57.2,34.3,30.00,NNE,25,3.0,6.0,42,0.00,,,0.00,Wunderground v.1.15,2013-02-14 19:46:00,
2013-02-14 13:52:00,57.0,34.7,30.00,NNE,32,3.0,6.0,43,0.00,,,0.00,Wunderground v.1.15,2013-02-14 19:52:00,
2013-02-14 13:59:00,56.8,34.5,30.00,NE,42,4.0,6.0,43,0.00,,,0.00,Wunderground v.1.15,2013-02-14 19:59:00,
2013-02-14 14:04:00,56.7,34.4,30.00,North,9,4.0,6.0,43,0.00,,,0.00,Wunderground v.1.15,2013-02-14 20:04:00,
2013-02-14 14:10:00,56.9,34.6,30.00,NE,46,2.0,2.0,43,0.00,,,0.00,Wunderground v.1.15,2013-02-14 20:10:00,
2013-02-14 14:16:00,57.8,34.8,30.00,North,5,2.0,7.0,42,0.00,,,0.00,Wunderground v.1.15,2013-02-14 20:16:00,
2013-02-14 14:22:00,57.8,34.8,29.99,NE,38,4.0,5.0,42,0.00,,,0.00,Wunderground v.1.15,2013-02-14 20:22:00,
2013-02-14 14:29:00,57.7,34.7,29.99,NE,46,4.0,5.0,42,0.00,,,0.00,Wunderground v.1.15,2013-02-14 20:29:00,
2013-02-14 14:34:00,58.1,35.1,29.99,East,79,2.0,4.0,42,0.00,,,0.00,Wunderground v.1.15,2013-02-14 20:34:00,
2013-02-14 14:40:00,58.3,35.3,30.00,East,83,2.0,2.0,42,0.00,,,0.00,Wunderground v.1.15,2013-02-14 20:40:00,
2013-02-14 14:46:00,57.9,34.9,29.99,NE,45,3.0,5.0,42,0.00,,,0.00,Wunderground v.1.15,2013-02-14 20:46:00,
2013-02-14 14:52:00,57.9,34.9,30.00,NE,42,3.0,9.0,42,0.00,,,0.00,Wunderground v.1.15,2013-02-14 20:52:00,
2013-02-14 14:58:00,58.3,35.3,29.99,ENE,71,3.0,9.0,42,0.00,,,0.00,Wunderground v.1.15,2013-02-14 20:58:00,
2013-02-14 15:04:00,58.2,35.2,29.99,ENE,64,2.0,4.0,42,0.00,,,0.00,Wunderground v.1.15,2013-02-14 21:04:00,
2013-02-14 15:10:00,58.4,35.4,29.99,NNE,17,3.0,4.0,42,0.00,,,0.00,Wunderground v.1.15,2013-02-14 21:10:00,
2013-02-14 15:16:00,58.2,35.2,29.99,NE,52,4.0,4.0,42,0.00,,,0.00,Wunderground v.1.15,2013-02-14 21:16:00,
2013-02-14 15:22:00,58.2,35.2,29.99,NNE,18,4.0,9.0,42,0.00,,,0.00,Wunderground v.1.15,2013-02-14 21:22:00,
2013-02-14 15:28:00,58.4,35.4,29.99,ENE,59,3.0,9.0,42,0.00,,,0.00,Wunderground v.1.15,2013-02-14 21:28:00,
2013-02-14 15:34:00,58.5,34.9,29.99,NE,46,3.0,3.0,41,0.00,,,0.00,Wunderground v.1.15,2013-02-14 21:34:00,
2013-02-14 15:40:00,58.1,35.1,29.99,NNE,21,4.0,4.0,42,0.00,,,0.00,Wunderground v.1.15,2013-02-14 21:40:00,
2013-02-14 15:46:00,58.2,34.6,29.99,NNE,17,3.0,4.0,41,0.00,,,0.00,Wunderground v.1.15,2013-02-14 21:46:00,
2013-02-14 15:52:00,58.2,34.6,29.99,NE,46,3.0,10.0,41,0.00,,,0.00,Wunderground v.1.15,2013-02-14 21:52:00,
2013-02-14 15:58:00,58.3,34.7,29.99,NNE,24,4.0,10.0,41,0.00,,,0.00,Wunderground v.1.15,2013-02-14 21:58:00,
2013-02-14 16:04:00,58.6,34.3,29.99,NNE,30,4.0,9.0,40,0.00,,,0.00,Wunderground v.1.15,2013-02-14 22:04:00,
2013-02-14 16:10:00,58.2,34.0,29.99,North,351,5.0,5.0,40,0.00,,,0.00,Wunderground v.1.15,2013-02-14 22:10:00,
2013-02-14 16:16:00,58.4,34.2,29.99,North,11,5.0,17.0,40,0.00,,,0.00,Wunderground v.1.15,2013-02-14 22:16:00,
2013-02-14 16:22:00,58.7,34.4,29.99,NNE,28,5.0,5.0,40,0.00,,,0.00,Wunderground v.1.15,2013-02-14 22:22:00,
2013-02-14 16:28:00,58.9,34.6,30.00,NE,44,4.0,5.0,40,0.00,,,0.00,Wunderground v.1.15,2013-02-14 22:28:00,
2013-02-14 16:34:00,58.6,34.3,30.00,NNE,17,5.0,8.0,40,0.00,,,0.00,Wunderground v.1.15,2013-02-14 22:34:00,
2013-02-14 16:40:00,58.1,33.9,30.00,NNE,15,4.0,9.0,40,0.00,,,0.00,Wunderground v.1.15,2013-02-14 22:40:00,
2013-02-14 16:46:00,57.8,33.6,30.00,NE,42,5.0,12.0,40,0.00,,,0.00,Wunderground v.1.15,2013-02-14 22:46:00,
2013-02-14 16:52:00,57.3,33.2,30.01,NNE,25,5.0,6.0,40,0.00,,,0.00,Wunderground v.1.15,2013-02-14 22:52:00,
2013-02-14 16:58:00,56.8,32.7,30.01,NE,56,5.0,10.0,40,0.00,,,0.00,Wunderground v.1.15,2013-02-14 22:58:00,
2013-02-14 17:04:00,56.6,33.2,30.01,North,9,5.0,10.0,41,0.00,,,0.00,Wunderground v.1.15,2013-02-14 23:04:00,
2013-02-14 17:10:00,56.2,32.8,30.02,ENE,59,4.0,4.0,41,0.00,,,0.00,Wunderground v.1.15,2013-02-14 23:10:00,
2013-02-14 17:16:00,55.7,32.3,30.02,NE,53,4.0,5.0,41,0.00,,,0.00,Wunderground v.1.15,2013-02-14 23:16:00,
2013-02-14 17:22:00,55.4,32.7,30.02,NNE,32,3.0,4.0,42,0.00,,,0.00,Wunderground v.1.15,2013-02-14 23:22:00,
2013-02-14 17:28:00,55.1,33.0,30.03,NNE,26,4.0,4.0,43,0.00,,,0.00,Wunderground v.1.15,2013-02-14 23:28:00,
2013-02-14 17:34:00,54.8,32.7,30.02,NE,37,4.0,4.0,43,0.00,,,0.00,Wunderground v.1.15,2013-02-14 23:34:00,
2013-02-14 17:40:00,54.6,33.1,30.03,NNE,28,3.0,3.0,44,0.00,,,0.00,Wunderground v.1.15,2013-02-14 23:40:00,
2013-02-14 17:46:00,54.5,33.0,30.03,NNE,23,3.0,9.0,44,0.00,,,0.00,Wunderground v.1.15,2013-02-14 23:46:00,
2013-02-14 17:52:00,54.5,33.0,30.03,NNE,21,2.0,4.0,44,0.00,,,0.00,Wunderground v.1.15,2013-02-14 23:52:00,
2013-02-14 18:04:00,54.3,33.4,30.05,NNE,26,2.0,2.0,45,0.00,,,0.00,Wunderground v.1.15,2013-02-15 00:04:00,
2013-02-14 18:10:00,54.1,33.2,30.05,NNE,23,2.0,7.0,45,0.00,,,0.00,Wunderground v.1.15,2013-02-15 00:10:00,
2013-02-14 18:16:00,53.9,33.0,30.05,NE,34,2.0,2.0,45,0.00,,,0.00,Wunderground v.1.15,2013-02-15 00:16:00,
2013-02-14 18:22:00,53.8,32.9,30.06,NNE,33,1.0,2.0,45,0.00,,,0.00,Wunderground v.1.15,2013-02-15 00:22:00,
2013-02-14 18:29:00,53.7,32.8,30.06,NNE,32,1.0,2.0,45,0.00,,,0.00,Wunderground v.1.15,2013-02-15 00:29:00,
2013-02-14 18:34:00,53.6,32.8,30.06,NNE,32,1.0,1.0,45,0.00,,,0.00,Wunderground v.1.15,2013-02-15 00:34:00,
2013-02-14 18:40:00,53.5,32.7,30.07,NNE,32,0.0,1.0,45,0.00,,,0.00,Wunderground v.1.15,2013-02-15 00:40:00,
2013-02-14 18:46:00,53.3,33.0,30.07,NNE,32,0.0,0.0,46,0.00,,,0.00,Wunderground v.1.15,2013-02-15 00:46:00,
2013-02-14 18:52:00,53.2,32.9,30.07,NNE,32,0.0,0.0,46,0.00,,,0.00,Wunderground v.1.15,2013-02-15 00:52:00,
2013-02-14 18:59:00,53.0,32.8,30.07,NNE,32,0.0,1.0,46,0.00,,,0.00,Wunderground v.1.15,2013-02-15 00:59:00,
2013-02-14 19:04:00,52.8,32.6,30.07,NNE,32,0.0,1.0,46,0.00,,,0.00,Wunderground v.1.15,2013-02-15 01:04:00,
2013-02-14 19:10:00,52.6,32.4,30.07,NNE,32,1.0,1.0,46,0.00,,,0.00,Wunderground v.1.15,2013-02-15 01:10:00,
2013-02-14 19:16:00,52.4,32.7,30.07,NNE,32,1.0,1.0,47,0.00,,,0.00,Wunderground v.1.15,2013-02-15 01:16:00,
2013-02-14 19:22:00,52.2,32.6,30.08,NNE,32,1.0,2.0,47,0.00,,,0.00,Wunderground v.1.15,2013-02-15 01:22:00,
2013-02-14 19:28:00,52.1,33.0,30.09,NNW,342,2.0,2.0,48,0.00,,,0.00,Wunderground v.1.15,2013-02-15 01:28:00,
2013-02-14 19:34:00,51.9,32.8,30.09,NNE,13,3.0,11.0,48,0.00,,,0.00,Wunderground v.1.15,2013-02-15 01:34:00,
2013-02-14 19:40:00,51.6,33.0,30.09,NNE,13,5.0,5.0,49,0.00,,,0.00,Wunderground v.1.15,2013-02-15 01:40:00,
2013-02-14 19:46:00,51.3,32.8,30.10,NNE,32,5.0,6.0,49,0.00,,,0.00,Wunderground v.1.15,2013-02-15 01:46:00,
2013-02-14 19:52:00,51.1,32.6,30.10,NNE,24,5.0,10.0,49,0.00,,,0.00,Wunderground v.1.15,2013-02-15 01:52:00,
2013-02-14 19:58:00,50.9,32.4,30.10,NNE,13,5.0,10.0,49,0.00,,,0.00,Wunderground v.1.15,2013-02-15 01:58:00,
2013-02-14 20:04:00,50.8,32.3,30.10,NNE,26,6.0,7.0,49,0.00,,,0.00,Wunderground v.1.15,2013-02-15 02:04:00,
2013-02-14 20:10:00,50.8,32.3,30.10,North,11,5.0,9.0,49,0.00,,,0.00,Wunderground v.1.15,2013-02-15 02:10:00,
2013-02-14 20:16:00,50.7,31.7,30.10,NNE,13,5.0,9.0,48,0.00,,,0.00,Wunderground v.1.15,2013-02-15 02:16:00,
2013-02-14 20:22:00,50.6,31.6,30.11,NNE,19,5.0,5.0,48,0.00,,,0.00,Wunderground v.1.15,2013-02-15 02:22:00,
2013-02-14 20:28:00,50.6,32.1,30.11,NNW,348,4.0,7.0,49,0.00,,,0.00,Wunderground v.1.15,2013-02-15 02:28:00,
2013-02-14 20:34:00,50.5,31.5,30.11,NNE,14,4.0,4.0,48,0.00,,,0.00,Wunderground v.1.15,2013-02-15 02:34:00,
2013-02-14 20:40:00,50.5,31.5,30.11,NNE,14,6.0,6.0,48,0.00,,,0.00,Wunderground v.1.15,2013-02-15 02:40:00,
2013-02-14 20:46:00,50.5,31.5,30.12,NNE,22,7.0,11.0,48,0.00,,,0.00,Wunderground v.1.15,2013-02-15 02:46:00,
2013-02-14 20:52:00,50.4,31.4,30.12,NNW,344,6.0,7.0,48,0.00,,,0.00,Wunderground v.1.15,2013-02-15 02:52:00,
2013-02-14 20:58:00,50.3,31.3,30.12,NW,319,6.0,10.0,48,0.00,,,0.00,Wunderground v.1.15,2013-02-15 02:58:00,
2013-02-14 21:04:00,50.1,31.7,30.13,North,9,7.0,9.0,49,0.00,,,0.00,Wunderground v.1.15,2013-02-15 03:04:00,
2013-02-14 21:10:00,49.9,32.0,30.13,NNE,20,8.0,8.0,50,0.00,,,0.00,Wunderground v.1.15,2013-02-15 03:10:00,
2013-02-14 21:16:00,49.6,31.7,30.13,North,349,6.0,12.0,50,0.00,,,0.00,Wunderground v.1.15,2013-02-15 03:16:00,
2013-02-14 21:22:00,49.5,32.1,30.13,North,360,6.0,7.0,51,0.00,,,0.00,Wunderground v.1.15,2013-02-15 03:22:00,
2013-02-14 21:28:00,49.3,31.9,30.14,NNE,21,6.0,11.0,51,0.00,,,0.00,Wunderground v.1.15,2013-02-15 03:28:00,
2013-02-14 21:34:00,49.2,31.8,30.14,NE,37,7.0,10.0,51,0.00,,,0.00,Wunderground v.1.15,2013-02-15 03:34:00,
2013-02-14 21:40:00,49.2,31.8,30.14,NNW,340,8.0,8.0,51,0.00,,,0.00,Wunderground v.1.15,2013-02-15 03:40:00,
2013-02-14 21:46:00,49.0,31.6,30.14,North,11,7.0,13.0,51,0.00,,,0.00,Wunderground v.1.15,2013-02-15 03:46:00,
2013-02-14 21:52:00,48.9,31.1,30.14,NE,35,7.0,7.0,50,0.00,,,0.00,Wunderground v.1.15,2013-02-15 03:52:00,
2013-02-14 21:58:00,48.7,30.9,30.15,North,360,8.0,8.0,50,0.00,,,0.00,Wunderground v.1.15,2013-02-15 03:58:00,
2013-02-14 22:04:00,48.6,30.8,30.15,NNE,24,6.0,7.0,50,0.00,,,0.00,Wunderground v.1.15,2013-02-15 04:04:00,
2013-02-14 22:10:00,48.3,31.5,30.16,NNW,344,6.0,6.0,52,0.00,,,0.00,Wunderground v.1.15,2013-02-15 04:10:00,
2013-02-14 22:16:00,47.7,31.4,30.16,North,355,8.0,13.0,53,0.00,,,0.00,Wunderground v.1.15,2013-02-15 04:16:00,
2013-02-14 22:22:00,47.3,31.9,30.17,NNW,338,9.0,11.0,55,0.00,,,0.00,Wunderground v.1.15,2013-02-15 04:22:00,
2013-02-14 22:28:00,46.7,32.7,30.17,NNW,342,8.0,15.0,58,0.00,,,0.00,Wunderground v.1.15,2013-02-15 04:28:00,
2013-02-14 22:34:00,46.3,32.7,30.17,NNE,20,9.0,16.0,59,0.00,,,0.00,Wunderground v.1.15,2013-02-15 04:34:00,
2013-02-14 22:40:00,45.9,33.2,30.17,North,5,9.0,14.0,61,0.00,,,0.00,Wunderground v.1.15,2013-02-15 04:40:00,
2013-02-14 22:46:00,45.7,32.6,30.17,NE,44,8.0,14.0,60,0.00,,,0.00,Wunderground v.1.15,2013-02-15 04:46:00,
2013-02-14 22:52:00,45.6,32.5,30.17,North,9,6.0,10.0,60,0.00,,,0.00,Wunderground v.1.15,2013-02-15 04:52:00,
2013-02-14 22:59:00,45.5,32.0,30.17,NNW,346,5.0,10.0,59,0.00,,,0.00,Wunderground v.1.15,2013-02-15 04:59:00,
2013-02-14 23:00:00,45.5,32.0,30.17,NW,325,4.0,4.0,59,0.00,,,0.00,Wunderground v.1.15,2013-02-15 05:00:00,
2013-02-14 23:02:00,45.5,32.0,30.17,NNW,333,4.0,4.0,59,0.00,,,0.00,Wunderground v.1.15,2013-02-15 05:02:00,
2013-02-14 23:08:00,45.5,32.0,30.17,NNW,346,2.0,4.0,59,0.00,,,0.00,Wunderground v.1.15,2013-02-15 05:08:00,
2013-02-14 23:10:00,45.5,32.0,30.17,NNW,346,2.0,2.0,59,0.00,,,0.00,Wunderground v.1.15,2013-02-15 05:10:00,
2013-02-14 23:12:00,45.5,32.0,30.17,NNW,346,2.0,2.0,59,0.00,,,0.00,Wunderground v.1.15,2013-02-15 05:12:00,
2013-02-14 23:18:00,45.5,31.6,30.17,NNW,346,2.0,2.0,58,0.00,,,0.00,Wunderground v.1.15,2013-02-15 05:18:00,
2013-02-14 23:24:00,45.5,31.6,30.17,NNW,347,1.0,2.0,58,0.00,,,0.00,Wunderground v.1.15,2013-02-15 05:24:00,
2013-02-14 23:30:00,45.5,31.6,30.17,NNW,347,1.0,1.0,58,0.00,,,0.00,Wunderground v.1.15,2013-02-15 05:30:00,
2013-02-14 23:36:00,45.5,31.6,30.17,NNW,345,1.0,3.0,58,0.00,,,0.00,Wunderground v.1.15,2013-02-15 05:36:00,
2013-02-14 23:42:00,45.4,31.5,30.17,NNW,345,1.0,1.0,58,0.00,,,0.00,Wunderground v.1.15,2013-02-15 05:42:00,
2013-02-14 23:48:00,45.3,31.4,30.17,NNW,344,2.0,3.0,58,0.00,,,0.00,Wunderground v.1.15,2013-02-15 05:48:00,
2013-02-14 23:54:00,45.2,31.3,30.17,NNW,344,2.0,2.0,58,0.00,,,0.00,Wunderground v.1.15,2013-02-15 05:54:00,